Location: Ferchesar
(52.6477°N, 12.4298°E)
Time: 06:26:38
(UTC+02:00)

Transit 4A - Pass Details

Date: 04 March 2021
Orbit: 869 x 976 km, 66.8° (Epoch: 12 April)

Event Time Altitude Azimuth Distance (km) Brightness Sun altitude
Rises 12:20:35 0° 249° (WSW) 3,658 11.3 31.1°
Reaches altitude 10° 12:23:21 10° 257° (WSW) 2,704 10.6 31.1°
Maximum altitude 12:29:15 40° 326° (NW) 1,378 8.8 31.1°
Drops below altitude 10° 12:35:03 10° 35° (NE) 2,653 9.9 31.0°
Sets 12:37:45 0° 43° (NE) 3,582 10.6 31.0°
